Previsão horária em Julianowo

Hoje, 21 Junho, Segunda-feira

Tempo Temperatura Precipitação Vento Pressão Humidade
00:00 +21°C° 0 mm 3 m/s 748 mmHg 76%
01:00 +21°C° 0 mm 3 m/s 748 mmHg 77%
02:00 +20°C° 0 mm 3 m/s 748 mmHg 80%
03:00 +20°C° 0 mm 3 m/s 748 mmHg 82%
04:00 +20°C° 0 mm 3 m/s 747 mmHg 85%
05:00 +21°C° 0 mm 4 m/s 748 mmHg 80%
06:00 +23°C° 0 mm 4 m/s 748 mmHg 75%
07:00 +25°C° 0 mm 5 m/s 748 mmHg 69%
08:00 +26°C° 0 mm 5 m/s 748 mmHg 65%
09:00 +28°C° 0 mm 5 m/s 748 mmHg 60%
10:00 +29°C° 0 mm 5 m/s 748 mmHg 55%
11:00 +30°C° 0 mm 5 m/s 747 mmHg 54%
12:00 +30°C° 0 mm 5 m/s 747 mmHg 52%
13:00 +32°C° 0 mm 5 m/s 747 mmHg 50%
14:00 +32°C° 0 mm 5 m/s 746 mmHg 50%
15:00 +32°C° 0 mm 5 m/s 746 mmHg 50%
16:00 +32°C° 0 mm 5 m/s 745 mmHg 50%
17:00 +30°C° 0.1 mm 4 m/s 746 mmHg 57%
18:00 +28°C° 0.1 mm 4 m/s 746 mmHg 64%
19:00 +27°C° 0.1 mm 3 m/s 747 mmHg 71%
20:00 +25°C° 0.2 mm 2 m/s 747 mmHg 77%
21:00 +22°C° 0.2 mm 1 m/s 747 mmHg 84%
22:00 +18°C° 0.2 mm 0 m/s 747 mmHg 91%
23:00 +20°C° 0.2 mm 1 m/s 747 mmHg 91%

Amanhã, 22 Junho, Terça-feira

Tempo Temperatura Precipitação Vento Pressão Humidade
00:00 +19°C° 0.2 mm 2 m/s 747 mmHg 92%
01:00 +19°C° 0.2 mm 3 m/s 747 mmHg 93%
02:00 +18°C° 0 mm 3 m/s 747 mmHg 93%
03:00 +18°C° 0 mm 3 m/s 747 mmHg 94%
04:00 +18°C° 0 mm 3 m/s 748 mmHg 95%
05:00 +19°C° 0 mm 3 m/s 748 mmHg 91%
06:00 +20°C° 0 mm 4 m/s 748 mmHg 88%
07:00 +21°C° 0 mm 4 m/s 749 mmHg 84%
08:00 +22°C° 0 mm 4 m/s 749 mmHg 79%
09:00 +23°C° 0 mm 4 m/s 749 mmHg 74%
10:00 +25°C° 0 mm 4 m/s 750 mmHg 68%
11:00 +26°C° 0 mm 3 m/s 750 mmHg 65%
12:00 +27°C° 0 mm 3 m/s 750 mmHg 61%
13:00 +28°C° 0 mm 3 m/s 750 mmHg 57%
14:00 +28°C° 0 mm 3 m/s 750 mmHg 57%
15:00 +28°C° 0 mm 3 m/s 750 mmHg 56%
16:00 +29°C° 0 mm 3 m/s 750 mmHg 55%
17:00 +27°C° 0 mm 3 m/s 750 mmHg 61%
18:00 +26°C° 0 mm 4 m/s 750 mmHg 67%
19:00 +25°C° 0 mm 4 m/s 750 mmHg 73%
20:00 +22°C° 0.3 mm 4 m/s 751 mmHg 76%
21:00 +21°C° 0.3 mm 4 m/s 751 mmHg 80%
22:00 +19°C° 0.3 mm 4 m/s 752 mmHg 83%
23:00 +18°C° 0.3 mm 4 m/s 752 mmHg 83%

Depois de amanhã, 23 Junho, Quarta-feira

Tempo Temperatura Precipitação Vento Pressão Humidade
00:00 +17°C° 0.3 mm 3 m/s 752 mmHg 83%
01:00 +16°C° 0.3 mm 3 m/s 752 mmHg 83%
02:00 +16°C° 0 mm 3 m/s 752 mmHg 82%
03:00 +14°C° 0 mm 3 m/s 752 mmHg 81%
04:00 +14°C° 0 mm 3 m/s 753 mmHg 80%
05:00 +16°C° 0 mm 3 m/s 753 mmHg 75%
06:00 +17°C° 0 mm 3 m/s 753 mmHg 69%
07:00 +19°C° 0 mm 3 m/s 754 mmHg 63%
08:00 +20°C° 0 mm 3 m/s 754 mmHg 59%
09:00 +22°C° 0 mm 3 m/s 754 mmHg 55%
10:00 +25°C° 0 mm 3 m/s 754 mmHg 51%
11:00 +25°C° 0.1 mm 3 m/s 754 mmHg 50%
12:00 +26°C° 0.1 mm 3 m/s 754 mmHg 50%
13:00 +27°C° 0.1 mm 3 m/s 754 mmHg 50%
14:00 +27°C° 0.1 mm 3 m/s 754 mmHg 51%
15:00 +27°C° 0.1 mm 3 m/s 754 mmHg 52%
16:00 +27°C° 0.1 mm 3 m/s 754 mmHg 52%
17:00 +26°C° 0 mm 3 m/s 754 mmHg 59%
18:00 +25°C° 0 mm 2 m/s 754 mmHg 65%
19:00 +24°C° 0 mm 2 m/s 754 mmHg 71%
20:00 +21°C° 0 mm 2 m/s 754 mmHg 76%
21:00 +20°C° 0 mm 2 m/s 754 mmHg 82%
22:00 +18°C° 0 mm 2 m/s 754 mmHg 88%
23:00 +18°C° 0.1 mm 2 m/s 754 mmHg 88%

24 Junho, Quinta-feira

Tempo Temperatura Precipitação Vento Pressão Humidade
00:00 +18°C° 0.1 mm 2 m/s 754 mmHg 89%
01:00 +18°C° 0.1 mm 2 m/s 754 mmHg 90%
02:00 +18°C° 0 mm 2 m/s 754 mmHg 86%
03:00 +17°C° 0 mm 2 m/s 754 mmHg 83%
04:00 +18°C° 0 mm 1 m/s 754 mmHg 79%
05:00 +19°C° 0 mm 1 m/s 754 mmHg 76%
06:00 +19°C° 0 mm 1 m/s 755 mmHg 73%
07:00 +19°C° 0 mm 2 m/s 755 mmHg 70%
08:00 +20°C° 0 mm 2 m/s 755 mmHg 66%
09:00 +23°C° 0 mm 2 m/s 755 mmHg 61%
10:00 +24°C° 0 mm 2 m/s 755 mmHg 57%
11:00 +25°C° 0 mm 2 m/s 754 mmHg 55%
12:00 +26°C° 0 mm 1 m/s 754 mmHg 53%
13:00 +27°C° 0 mm 1 m/s 754 mmHg 51%
14:00 +28°C° 0 mm 1 m/s 754 mmHg 51%
15:00 +28°C° 0 mm 1 m/s 753 mmHg 51%
16:00 +28°C° 0 mm 1 m/s 753 mmHg 50%
17:00 +28°C° 0 mm 1 m/s 753 mmHg 56%
18:00 +27°C° 0 mm 1 m/s 753 mmHg 61%
19:00 +26°C° 0 mm 1 m/s 753 mmHg 66%
20:00 +25°C° 0 mm 2 m/s 752 mmHg 69%
21:00 +23°C° 0 mm 2 m/s 752 mmHg 72%
22:00 +21°C° 0 mm 3 m/s 752 mmHg 75%
23:00 +20°C° 0.2 mm 3 m/s 752 mmHg 80%

25 Junho, Sexta-feira

Tempo Temperatura Precipitação Vento Pressão Humidade
00:00 +19°C° 0.2 mm 2 m/s 752 mmHg 84%
01:00 +17°C° 0.2 mm 2 m/s 751 mmHg 89%
02:00 +17°C° 2.1 mm 2 m/s 751 mmHg 91%
03:00 +17°C° 2.1 mm 2 m/s 751 mmHg 92%
04:00 +17°C° 2.1 mm 2 m/s 751 mmHg 94%
05:00 +17°C° 1.6 mm 3 m/s 751 mmHg 94%
06:00 +17°C° 1.6 mm 3 m/s 751 mmHg 95%
07:00 +17°C° 1.6 mm 4 m/s 751 mmHg 95%
08:00 +18°C° 0.1 mm 3 m/s 751 mmHg 93%
09:00 +18°C° 0.1 mm 3 m/s 751 mmHg 91%
10:00 +18°C° 0.1 mm 3 m/s 751 mmHg 89%
11:00 +20°C° 0 mm 3 m/s 751 mmHg 82%
12:00 +21°C° 0 mm 3 m/s 751 mmHg 76%
13:00 +23°C° 0 mm 4 m/s 751 mmHg 69%
14:00 +24°C° 0.1 mm 3 m/s 751 mmHg 67%
15:00 +25°C° 0.1 mm 3 m/s 750 mmHg 65%
16:00 +25°C° 0.1 mm 2 m/s 750 mmHg 62%
17:00 +24°C° 0.7 mm 2 m/s 750 mmHg 70%
18:00 +23°C° 0.7 mm 2 m/s 750 mmHg 77%
19:00 +20°C° 0.7 mm 3 m/s 751 mmHg 85%
20:00 +20°C° 0.1 mm 3 m/s 751 mmHg 87%
21:00 +19°C° 0.1 mm 3 m/s 751 mmHg 90%
22:00 +18°C° 0.1 mm 3 m/s 751 mmHg 92%
23:00 +17°C° 0 mm 3 m/s 751 mmHg 93%

26 Junho, Sábado

Tempo Temperatura Precipitação Vento Pressão Humidade
00:00 +16°C° 0 mm 3 m/s 751 mmHg 94%
01:00 +16°C° 0 mm 3 m/s 751 mmHg 94%
02:00 +14°C° 0 mm 3 m/s 751 mmHg 95%
03:00 +14°C° 0 mm 3 m/s 751 mmHg 95%
04:00 +13°C° 0 mm 3 m/s 751 mmHg 96%
05:00 +14°C° 0 mm 3 m/s 751 mmHg 92%
06:00 +17°C° 0 mm 3 m/s 752 mmHg 88%
07:00 +18°C° 0 mm 4 m/s 752 mmHg 84%
08:00 +19°C° 0.2 mm 4 m/s 752 mmHg 79%
09:00 +20°C° 0.2 mm 4 m/s 752 mmHg 74%
10:00 +21°C° 0.2 mm 4 m/s 752 mmHg 70%
11:00 +22°C° 0.5 mm 4 m/s 752 mmHg 69%
12:00 +22°C° 0.5 mm 4 m/s 751 mmHg 68%
13:00 +23°C° 0.5 mm 5 m/s 751 mmHg 68%
14:00 +22°C° 0.9 mm 5 m/s 751 mmHg 70%
15:00 +22°C° 0.9 mm 5 m/s 751 mmHg 73%
16:00 +21°C° 0.9 mm 5 m/s 751 mmHg 76%
17:00 +21°C° 0.9 mm 4 m/s 751 mmHg 78%
18:00 +20°C° 0.9 mm 4 m/s 751 mmHg 81%
19:00 +19°C° 0.9 mm 3 m/s 751 mmHg 83%
20:00 +18°C° 0.2 mm 3 m/s 752 mmHg 84%
21:00 +18°C° 0.2 mm 2 m/s 752 mmHg 85%
22:00 +17°C° 0.2 mm 2 m/s 752 mmHg 86%
23:00 +16°C° 0.1 mm 2 m/s 753 mmHg 87%
Mostrar mais

Necessitamos do seu Consentimento

A Meteoprog e os seus Fornecedores de Serviços podem armazenar e aceder a dados pessoais como cookies, identificadores do dispositivo ou outras tecnologias semelhantes existentes no seu dispositivo e processar estes dados para personalizar conteúdos e anúncios, assim como funcionalidades nas redes sociais e análise de tráfego.

  • Armazenar e/ou aceder a informações no seu dispositivo

    Os cookies, identificadores do dispositivo ou outras informações podem ser armazenados ou acedidos no seu dispositivo, para os fins acima indicados.

  • Anúncios e conteúdos personalizados, medição de anúncios e conteúdos, dados sobre o público-alvo e desenvolvimento de produtos

    Os anúncios e os conteúdos podem ser personalizados com base num perfil. Podem ser adicionados dados adicionais para uma maior personalização dos anúncios e dos conteúdos. A eficácia dos anúncios e dos conteúdos pode ser medida. Podem ser obtidas informações sobre o público que visualizou os anúncios e os conteúdos. Estes dados podem ser usados para desenvolver ou melhorar sistemas, softwares ou a experiência do utilizador.

Ao clicar em "Eu concordo”, permitirá o uso de cookies, identificadores do dispositivo e web beacons mencionados ou outras tecnologias semelhantes. As configurações do navegador do seu dispositivo podem ser alteradas.

Para certos fins, podem ser invocados interesses legítimos ao invés de consentimento. Pode ler mais informação sobre este assunto na nossa Política de Privacidade e Cookies.